BCS122 DNMM-FOOL

Flight info

Callsign BCS122
Flight time 1h 22m
Altitude 35000
Route PISBA1Q PISBA UG856 BIPIV BIPIV2B
Aircraft A320/M-SDE3FGHIRWY/LB1

Departure

Time 2026-05-07 02:19
Airport Murtala Muhammed International Airport (DNMM)

Arrival

Time 2026-05-07 03:42
Airport Libreville Leon M'ba International Airport (FOOL)
Time Latitude Longitude Altitude Speed Heading
2026-05-07 01:58 6.56883 3.31780 65 ft 0 kts 90°
2026-05-07 02:12 6.56883 3.31766 62 ft 3 kts 85°
2026-05-07 02:12 6.56878 3.31745 69 ft 3 kts 59°
2026-05-07 02:12 6.56865 3.31728 62 ft 3 kts 34°
2026-05-07 02:12 6.56846 3.31719 64 ft 3 kts
2026-05-07 02:13 6.56834 3.31718 64 ft 0 kts 354°
2026-05-07 02:15 6.56844 3.31713 59 ft 7 kts 331°
2026-05-07 02:15 6.56857 3.31639 68 ft 13 kts 268°
2026-05-07 02:15 6.56889 3.31551 67 ft 15 kts 332°
2026-05-07 02:15 6.57007 3.31543 67 ft 20 kts 359°
2026-05-07 02:16 6.57160 3.31542 68 ft 23 kts
2026-05-07 02:16 6.57328 3.31539 68 ft 25 kts 359°
2026-05-07 02:16 6.57507 3.31538 69 ft 26 kts
2026-05-07 02:16 6.57695 3.31534 69 ft 28 kts 359°
2026-05-07 02:17 6.57891 3.31532 70 ft 29 kts 359°
2026-05-07 02:17 6.58090 3.31530 71 ft 29 kts 360°
2026-05-07 02:17 6.58297 3.31526 73 ft 30 kts 359°
2026-05-07 02:17 6.58502 3.31524 74 ft 29 kts
2026-05-07 02:18 6.58706 3.31522 73 ft 26 kts 359°
2026-05-07 02:18 6.58810 3.31467 65 ft 14 kts 286°
2026-05-07 02:18 6.58791 3.31369 69 ft 15 kts 231°
2026-05-07 02:18 6.58680 3.31321 72 ft 25 kts 180°
2026-05-07 02:19 6.58315 3.31324 73 ft 87 kts 179°
2026-05-07 02:19 6.57496 3.31333 66 ft 145 kts 179°
2026-05-07 02:19 6.56360 3.31351 316 ft 169 kts 180°
2026-05-07 02:19 6.55183 3.31361 1077 ft 169 kts 178°
2026-05-07 02:20 6.54010 3.31379 1808 ft 169 kts 179°
2026-05-07 02:20 6.52780 3.31402 2226 ft 186 kts 179°
2026-05-07 02:20 6.51431 3.31462 2633 ft 201 kts 171°
2026-05-07 02:20 6.50057 3.31781 3260 ft 204 kts 167°
2026-05-07 02:21 6.48667 3.32123 3822 ft 211 kts 167°
2026-05-07 02:21 6.47154 3.32498 4101 ft 236 kts 166°
2026-05-07 02:21 6.45485 3.32912 4492 ft 259 kts 166°
2026-05-07 02:21 6.43721 3.33350 5171 ft 268 kts 166°
2026-05-07 02:22 6.41878 3.33808 5987 ft 272 kts 165°
2026-05-07 02:22 6.40039 3.34334 6738 ft 277 kts 156°
2026-05-07 02:22 6.38397 3.35298 7469 ft 279 kts 138°
2026-05-07 02:22 6.37085 3.36724 8263 ft 277 kts 121°
2026-05-07 02:23 6.36083 3.38380 9119 ft 277 kts 118°
2026-05-07 02:23 6.35080 3.40047 9953 ft 278 kts 118°
2026-05-07 02:23 6.34051 3.41747 10337 ft 296 kts 118°
2026-05-07 02:23 6.32944 3.43577 10650 ft 313 kts 118°
2026-05-07 02:24 6.31794 3.45466 11237 ft 320 kts 118°
2026-05-07 02:24 6.30625 3.47379 11905 ft 323 kts 118°
2026-05-07 02:24 6.29444 3.49313 12579 ft 327 kts 118°
2026-05-07 02:24 6.28253 3.51271 13260 ft 330 kts 118°
2026-05-07 02:25 6.27048 3.53255 13899 ft 333 kts 118°
2026-05-07 02:25 6.25834 3.55256 14474 ft 337 kts 118°
2026-05-07 02:25 6.24606 3.57280 15013 ft 342 kts 118°
2026-05-07 02:25 6.23362 3.59334 15560 ft 346 kts 119°
2026-05-07 02:26 6.22100 3.61416 16097 ft 350 kts 119°
2026-05-07 02:26 6.20823 3.63519 16630 ft 355 kts 120°
2026-05-07 02:26 6.19529 3.65647 17158 ft 359 kts 120°
2026-05-07 02:26 6.18237 3.67774 17678 ft 363 kts 120°
2026-05-07 02:27 6.16917 3.69950 18192 ft 367 kts 120°
2026-05-07 02:27 6.15579 3.72153 18638 ft 371 kts 120°
2026-05-07 02:27 6.14226 3.74372 19111 ft 374 kts 120°
2026-05-07 02:27 6.12863 3.76611 19584 ft 377 kts 120°
2026-05-07 02:28 6.11493 3.78865 20063 ft 379 kts 120°
2026-05-07 02:28 6.10114 3.81137 20535 ft 382 kts 120°
2026-05-07 02:28 6.08726 3.83426 21011 ft 385 kts 120°
2026-05-07 02:28 6.07331 3.85724 21466 ft 388 kts 120°
2026-05-07 02:29 6.05913 3.88057 21936 ft 391 kts 120°
2026-05-07 02:29 6.04491 3.90394 22402 ft 394 kts 120°
2026-05-07 02:29 6.03055 3.92752 22860 ft 397 kts 120°
2026-05-07 02:29 6.01609 3.95127 23318 ft 400 kts 120°
2026-05-07 02:30 6.00153 3.97519 23710 ft 403 kts 120°
2026-05-07 02:30 5.98690 3.99926 24078 ft 405 kts 120°
2026-05-07 02:30 5.97217 4.02348 24442 ft 407 kts 120°
2026-05-07 02:30 5.95754 4.04752 24795 ft 410 kts 120°
2026-05-07 02:31 5.94243 4.07235 25156 ft 412 kts 121°
2026-05-07 02:31 5.92534 4.09558 25498 ft 416 kts 130°
2026-05-07 02:31 5.90514 4.11601 25833 ft 419 kts 134°
2026-05-07 02:31 5.88424 4.13655 26169 ft 421 kts 134°
2026-05-07 02:32 5.86297 4.15750 26508 ft 424 kts 134°
2026-05-07 02:32 5.84904 4.17125 26724 ft 425 kts 134°
2026-05-07 02:32 5.82098 4.19897 27145 ft 428 kts 134°
2026-05-07 02:32 5.79967 4.22001 27453 ft 431 kts 134°
2026-05-07 02:33 5.77825 4.24113 27763 ft 433 kts 134°
2026-05-07 02:33 5.75672 4.26239 28066 ft 435 kts 133°
2026-05-07 02:33 5.73509 4.28376 28363 ft 437 kts 133°
2026-05-07 02:33 5.71335 4.30526 28657 ft 440 kts 133°
2026-05-07 02:34 5.69859 4.31984 28853 ft 441 kts 133°
2026-05-07 02:34 5.67662 4.34152 29141 ft 443 kts 133°
2026-05-07 02:34 5.65461 4.36320 29425 ft 446 kts 133°
2026-05-07 02:34 5.63235 4.38512 29703 ft 448 kts 133°
2026-05-07 02:35 5.61014 4.40699 29967 ft 450 kts 133°
2026-05-07 02:35 5.58770 4.42908 30194 ft 452 kts 133°
2026-05-07 02:35 5.56526 4.45123 30429 ft 453 kts 133°
2026-05-07 02:35 5.54274 4.47347 30666 ft 455 kts 133°
2026-05-07 02:36 5.52016 4.49575 30900 ft 456 kts 134°
2026-05-07 02:36 5.49780 4.51781 31126 ft 457 kts 134°
2026-05-07 02:36 5.47509 4.54021 31350 ft 458 kts 134°
2026-05-07 02:36 5.45235 4.56261 31655 ft 457 kts 134°
2026-05-07 02:37 5.42970 4.58490 31979 ft 456 kts 134°
2026-05-07 02:37 5.40710 4.60716 32296 ft 455 kts 134°
2026-05-07 02:37 5.38454 4.62939 32622 ft 454 kts 134°
2026-05-07 02:37 5.36206 4.65156 32952 ft 452 kts 134°
2026-05-07 02:38 5.33964 4.67369 33288 ft 451 kts 134°
2026-05-07 02:38 5.31727 4.69575 33611 ft 450 kts 134°
2026-05-07 02:38 5.29497 4.71771 33933 ft 449 kts 134°
2026-05-07 02:38 5.27267 4.73964 34207 ft 448 kts 134°
2026-05-07 02:39 5.25042 4.76150 34467 ft 447 kts 134°
2026-05-07 02:39 5.22822 4.78333 34725 ft 447 kts 134°
2026-05-07 02:39 5.20602 4.80518 34849 ft 446 kts 134°
2026-05-07 02:39 5.18408 4.82678 34882 ft 439 kts 134°
2026-05-07 02:40 5.14076 4.86944 34882 ft 435 kts 134°
2026-05-07 02:40 5.09768 4.91186 34885 ft 434 kts 134°
2026-05-07 02:41 5.05488 4.95394 34886 ft 434 kts 134°
2026-05-07 02:41 5.01174 4.99636 34884 ft 434 kts 134°
2026-05-07 02:42 4.96871 5.03873 34883 ft 433 kts 134°
2026-05-07 02:42 4.92564 5.08104 34879 ft 433 kts 134°
2026-05-07 02:43 4.88263 5.12331 34878 ft 433 kts 134°
2026-05-07 02:43 4.83950 5.16569 34879 ft 434 kts 134°
2026-05-07 02:44 4.79646 5.20802 34874 ft 434 kts 134°
2026-05-07 02:44 4.75323 5.25033 34874 ft 434 kts 134°
2026-05-07 02:45 4.70998 5.29251 34876 ft 434 kts 134°
2026-05-07 02:45 4.66703 5.33444 34879 ft 434 kts 134°
2026-05-07 02:46 4.62376 5.37659 34875 ft 434 kts 134°
2026-05-07 02:46 4.58052 5.41876 34876 ft 434 kts 134°
2026-05-07 02:47 4.53730 5.46093 34876 ft 434 kts 134°
2026-05-07 02:47 4.49409 5.50311 34875 ft 434 kts 134°
2026-05-07 02:48 4.45086 5.54528 34873 ft 434 kts 134°
2026-05-07 02:48 4.40759 5.58740 34872 ft 434 kts 134°
2026-05-07 02:49 4.36435 5.62956 34876 ft 434 kts 134°
2026-05-07 02:49 4.32117 5.67175 34875 ft 434 kts 134°
2026-05-07 02:50 4.27789 5.71397 34878 ft 433 kts 134°
2026-05-07 02:50 4.23469 5.75610 34871 ft 433 kts 134°
2026-05-07 02:51 4.19142 5.79813 34872 ft 433 kts 134°
2026-05-07 02:51 4.14818 5.84016 34872 ft 433 kts 134°
2026-05-07 02:52 4.10498 5.88233 34875 ft 433 kts 134°
2026-05-07 02:52 4.06180 5.92446 34877 ft 433 kts 134°
2026-05-07 02:53 4.01858 5.96657 34877 ft 434 kts 134°
2026-05-07 02:53 3.97529 6.00863 34877 ft 434 kts 134°
2026-05-07 02:54 3.93225 6.05037 34880 ft 434 kts 134°
2026-05-07 02:54 3.88899 6.09251 34881 ft 434 kts 134°
2026-05-07 02:55 3.84576 6.13469 34881 ft 434 kts 134°
2026-05-07 02:55 3.80244 6.17683 34882 ft 434 kts 134°
2026-05-07 02:56 3.75897 6.21881 34882 ft 434 kts 134°
2026-05-07 02:56 3.71554 6.26078 34883 ft 434 kts 134°
2026-05-07 02:57 3.67219 6.30278 34880 ft 433 kts 134°
2026-05-07 02:57 3.62884 6.34475 34876 ft 433 kts 134°
2026-05-07 02:58 3.58545 6.38666 34875 ft 433 kts 134°
2026-05-07 02:58 3.54209 6.42847 34874 ft 433 kts 134°
2026-05-07 02:59 3.49881 6.47034 34872 ft 433 kts 134°
2026-05-07 02:59 3.45552 6.51225 34872 ft 433 kts 134°
2026-05-07 03:00 3.41246 6.55380 34872 ft 433 kts 134°
2026-05-07 03:00 3.36912 6.59567 34874 ft 433 kts 134°
2026-05-07 03:01 3.32579 6.63756 34877 ft 433 kts 134°
2026-05-07 03:01 3.28262 6.67942 34883 ft 432 kts 134°
2026-05-07 03:02 3.23940 6.72126 34879 ft 432 kts 134°
2026-05-07 03:02 3.19614 6.76292 34876 ft 432 kts 134°
2026-05-07 03:03 3.15204 6.80377 34873 ft 432 kts 137°
2026-05-07 03:03 3.10531 6.84178 34870 ft 433 kts 140°
2026-05-07 03:04 3.05802 6.87904 34869 ft 433 kts 139°
2026-05-07 03:04 3.01102 6.91681 34864 ft 433 kts 139°
2026-05-07 03:05 2.96438 6.95499 34862 ft 433 kts 138°
2026-05-07 03:05 2.91780 6.99332 34860 ft 434 kts 138°
2026-05-07 03:06 2.87102 7.03154 34860 ft 435 kts 139°
2026-05-07 03:06 2.82410 7.06971 34859 ft 435 kts 139°
2026-05-07 03:07 2.77714 7.10799 34864 ft 436 kts 138°
2026-05-07 03:07 2.73018 7.14633 34861 ft 436 kts 138°
2026-05-07 03:08 2.68355 7.18446 34864 ft 437 kts 138°
2026-05-07 03:08 2.63649 7.22290 34870 ft 437 kts 138°
2026-05-07 03:09 2.58938 7.26136 34873 ft 437 kts 138°
2026-05-07 03:09 2.54213 7.29984 34878 ft 437 kts 138°
2026-05-07 03:10 2.49500 7.33829 34881 ft 437 kts 138°
2026-05-07 03:10 2.44846 7.37753 34883 ft 436 kts 135°
2026-05-07 03:11 2.40487 7.41960 34884 ft 435 kts 132°
2026-05-07 03:11 2.36223 7.46253 34887 ft 435 kts 133°
2026-05-07 03:12 2.31914 7.50491 34887 ft 435 kts 133°
2026-05-07 03:12 2.27568 7.54693 34888 ft 434 kts 133°
2026-05-07 03:13 2.23218 7.58879 34888 ft 434 kts 133°
2026-05-07 03:13 2.18878 7.63070 34889 ft 433 kts 133°
2026-05-07 03:14 2.14552 7.67268 34887 ft 433 kts 133°
2026-05-07 03:15 2.08067 7.73547 34890 ft 432 kts 133°
2026-05-07 03:15 2.03742 7.77724 34890 ft 432 kts 133°
2026-05-07 03:16 1.99447 7.81867 34887 ft 432 kts 133°
2026-05-07 03:16 1.95133 7.86042 34889 ft 431 kts 133°
2026-05-07 03:17 1.90827 7.90219 34888 ft 431 kts 133°
2026-05-07 03:17 1.86527 7.94380 34710 ft 430 kts 133°
2026-05-07 03:17 1.84389 7.96454 34484 ft 427 kts 133°
2026-05-07 03:18 1.82275 7.98529 34257 ft 425 kts 132°
2026-05-07 03:18 1.80186 8.00599 33864 ft 422 kts 132°
2026-05-07 03:18 1.78109 8.02661 33297 ft 420 kts 132°
2026-05-07 03:18 1.76042 8.04709 32785 ft 417 kts 132°
2026-05-07 03:19 1.73978 8.06748 32271 ft 415 kts 132°
2026-05-07 03:19 1.71936 8.08762 31762 ft 413 kts 133°
2026-05-07 03:19 1.69895 8.10778 31265 ft 411 kts 133°
2026-05-07 03:19 1.67870 8.12778 30764 ft 409 kts 133°
2026-05-07 03:20 1.65847 8.14770 30286 ft 407 kts 133°
2026-05-07 03:20 1.63858 8.16726 29787 ft 406 kts 133°
2026-05-07 03:20 1.61854 8.18700 29286 ft 402 kts 133°
2026-05-07 03:20 1.59877 8.20654 28850 ft 399 kts 133°
2026-05-07 03:21 1.57913 8.22594 28405 ft 395 kts 133°
2026-05-07 03:21 1.55964 8.24514 27967 ft 392 kts 133°
2026-05-07 03:21 1.54031 8.26421 27522 ft 389 kts 133°
2026-05-07 03:21 1.52114 8.28316 27072 ft 386 kts 133°
2026-05-07 03:22 1.50824 8.29591 26778 ft 385 kts 133°
2026-05-07 03:22 1.48926 8.31467 26315 ft 383 kts 133°
2026-05-07 03:22 1.47037 8.33333 25858 ft 381 kts 133°
2026-05-07 03:22 1.45153 8.35191 25381 ft 380 kts 133°
2026-05-07 03:23 1.43272 8.37043 24905 ft 379 kts 133°
2026-05-07 03:23 1.41394 8.38891 24410 ft 379 kts 133°
2026-05-07 03:23 1.39519 8.40740 23916 ft 379 kts 133°
2026-05-07 03:23 1.37645 8.42589 23415 ft 379 kts 133°
2026-05-07 03:24 1.35777 8.44435 22863 ft 378 kts 133°
2026-05-07 03:24 1.33912 8.46273 22387 ft 375 kts 133°
2026-05-07 03:24 1.32060 8.48100 21899 ft 373 kts 133°
2026-05-07 03:24 1.30219 8.49919 21431 ft 371 kts 133°
2026-05-07 03:25 1.28386 8.51733 20966 ft 369 kts 133°
2026-05-07 03:25 1.26588 8.53507 20512 ft 367 kts 133°
2026-05-07 03:25 1.24773 8.55294 20056 ft 365 kts 133°
2026-05-07 03:25 1.22965 8.57073 19624 ft 363 kts 133°
2026-05-07 03:26 1.21169 8.58842 19182 ft 361 kts 133°
2026-05-07 03:26 1.19399 8.60590 18797 ft 358 kts 133°
2026-05-07 03:26 1.17623 8.62343 18437 ft 354 kts 133°
2026-05-07 03:26 1.15873 8.64067 18022 ft 352 kts 133°
2026-05-07 03:27 1.14131 8.65780 17558 ft 350 kts 133°
2026-05-07 03:27 1.12403 8.67480 17133 ft 348 kts 133°
2026-05-07 03:27 1.10686 8.69174 16719 ft 345 kts 133°
2026-05-07 03:27 1.08992 8.70846 16301 ft 341 kts 133°
2026-05-07 03:28 1.07310 8.72505 15707 ft 335 kts 133°
2026-05-07 03:28 1.05676 8.74117 15306 ft 325 kts 133°
2026-05-07 03:28 1.04101 8.75667 14923 ft 315 kts 132°
2026-05-07 03:28 1.02558 8.77186 14560 ft 305 kts 132°
2026-05-07 03:29 1.01067 8.78656 14203 ft 297 kts 132°
2026-05-07 03:29 0.99617 8.80089 13855 ft 289 kts 132°
2026-05-07 03:29 0.98205 8.81484 13488 ft 282 kts 131°
2026-05-07 03:29 0.96824 8.82846 13141 ft 277 kts 131°
2026-05-07 03:30 0.95461 8.84191 12797 ft 276 kts 131°
2026-05-07 03:30 0.94109 8.85524 12468 ft 276 kts 132°
2026-05-07 03:30 0.92739 8.86878 12123 ft 276 kts 132°
2026-05-07 03:30 0.91374 8.88225 11786 ft 276 kts 132°
2026-05-07 03:31 0.90006 8.89574 11432 ft 276 kts 132°
2026-05-07 03:31 0.88638 8.90922 11078 ft 276 kts 132°
2026-05-07 03:31 0.87274 8.92265 10722 ft 276 kts 132°
2026-05-07 03:31 0.85906 8.93614 10359 ft 276 kts 132°
2026-05-07 03:32 0.84563 8.94982 9992 ft 275 kts 127°
2026-05-07 03:32 0.83506 8.96562 9617 ft 276 kts 115°
2026-05-07 03:32 0.82602 8.98269 9220 ft 279 kts 116°
2026-05-07 03:32 0.81693 8.99980 8838 ft 279 kts 116°
2026-05-07 03:33 0.80785 9.01690 8463 ft 279 kts 116°
2026-05-07 03:33 0.79875 9.03402 8087 ft 278 kts 116°
2026-05-07 03:33 0.78971 9.05104 7723 ft 277 kts 117°
2026-05-07 03:33 0.78070 9.06801 7437 ft 277 kts 117°
2026-05-07 03:34 0.77169 9.08498 7076 ft 276 kts 117°
2026-05-07 03:34 0.76279 9.10171 6710 ft 275 kts 117°
2026-05-07 03:34 0.75365 9.11880 6338 ft 274 kts 117°
2026-05-07 03:34 0.74477 9.13538 5953 ft 274 kts 118°
2026-05-07 03:35 0.73573 9.15235 5570 ft 273 kts 118°
2026-05-07 03:35 0.72692 9.16891 5207 ft 272 kts 118°
2026-05-07 03:35 0.71807 9.18553 4843 ft 271 kts 118°
2026-05-07 03:35 0.70921 9.20214 4465 ft 270 kts 119°
2026-05-07 03:36 0.70040 9.21864 4152 ft 265 kts 119°
2026-05-07 03:36 0.69199 9.23443 4089 ft 250 kts 119°
2026-05-07 03:36 0.68400 9.24943 3987 ft 238 kts 119°
2026-05-07 03:36 0.67642 9.26364 3886 ft 227 kts 119°
2026-05-07 03:37 0.66911 9.27742 3791 ft 224 kts 119°
2026-05-07 03:37 0.66183 9.29114 3694 ft 223 kts 119°
2026-05-07 03:37 0.65455 9.30484 3593 ft 223 kts 119°
2026-05-07 03:37 0.64659 9.31807 3490 ft 221 kts 133°
2026-05-07 03:38 0.63466 9.32720 3416 ft 213 kts 154°
2026-05-07 03:38 0.62147 9.33358 3182 ft 209 kts 155°
2026-05-07 03:38 0.60843 9.33981 2930 ft 207 kts 155°
2026-05-07 03:38 0.59555 9.34601 2669 ft 205 kts 155°
2026-05-07 03:39 0.58289 9.35213 2406 ft 204 kts 155°
2026-05-07 03:39 0.57018 9.35828 2166 ft 195 kts 155°
2026-05-07 03:39 0.55854 9.36391 1895 ft 181 kts 155°
2026-05-07 03:39 0.54793 9.36905 1693 ft 158 kts 155°
2026-05-07 03:40 0.53855 9.37359 1489 ft 144 kts 155°
2026-05-07 03:40 0.52973 9.37785 1304 ft 138 kts 155°
2026-05-07 03:40 0.52112 9.38202 1127 ft 137 kts 155°
2026-05-07 03:40 0.51254 9.38616 945 ft 137 kts 155°
2026-05-07 03:41 0.50396 9.39032 816 ft 137 kts 155°
2026-05-07 03:41 0.49545 9.39456 648 ft 137 kts 156°
2026-05-07 03:41 0.48696 9.39872 404 ft 134 kts 155°
2026-05-07 03:41 0.47853 9.40278 252 ft 137 kts 156°
2026-05-07 03:42 0.47001 9.40687 56 ft 134 kts 156°
2026-05-07 03:42 0.46273 9.41033 38 ft 82 kts 154°
2026-05-07 03:42 0.45976 9.41175 37 ft 33 kts 155°
2026-05-07 03:42 0.45839 9.41210 36 ft 17 kts 212°
2026-05-07 03:43 0.45803 9.41134 38 ft 0 kts 271°
2026-05-07 03:43 0.45803 9.41133 38 ft 2 kts 271°
2026-05-07 03:44 0.45829 9.41091 38 ft 9 kts 313°
2026-05-07 03:44 0.45825 9.41043 39 ft 6 kts 243°
2026-05-07 03:44 0.45819 9.41031 39 ft 0 kts 243°
2026-05-07 03:47 0.45819 9.41032 39 ft 0 kts 243°
2026-05-07 03:58 0.45820 9.41032 39 ft 0 kts 243°